TimeEDT,TemperatureF,Dew PointF,Humidity,Sea Level PressureIn,VisibilityMPH,Wind Direction,Wind SpeedMPH,Gust SpeedMPH,PrecipitationIn,Events,Conditions,WindDirDegrees,DateUTC
12:15 AM,32.7,29.5,88,30.03,10.0,Calm,Calm,-,N/A,,Scattered Clouds,0,2013-03-30 04:15:00
12:55 AM,35.4,27.7,73,30.03,10.0,SW,3.5,-,N/A,,Overcast,230,2013-03-30 04:55:00
1:15 AM,34.0,28.4,80,30.02,10.0,SW,3.5,-,N/A,,Overcast,230,2013-03-30 05:15:00
1:35 AM,34.5,27.1,74,30.02,10.0,Calm,Calm,-,N/A,,Overcast,0,2013-03-30 05:35:00
1:55 AM,36.1,25.9,66,30.02,10.0,West,4.6,-,N/A,,Mostly Cloudy,280,2013-03-30 05:55:00
2:35 AM,35.4,26.1,69,30.02,10.0,East,3.5,-,N/A,,Overcast,80,2013-03-30 06:35:00
2:55 AM,34.9,26.4,71,30.02,10.0,NNE,3.5,-,N/A,,Overcast,20,2013-03-30 06:55:00
3:15 AM,35.6,25.3,66,30.02,10.0,NW,4.6,-,N/A,,Overcast,310,2013-03-30 07:15:00
3:35 AM,35.8,24.4,63,30.02,10.0,West,3.5,-,N/A,,Overcast,270,2013-03-30 07:35:00
3:55 AM,34.5,24.8,68,30.02,10.0,Calm,Calm,-,N/A,,Overcast,0,2013-03-30 07:55:00
4:15 AM,34.2,24.6,68,30.02,10.0,Calm,Calm,-,N/A,,Scattered Clouds,0,2013-03-30 08:15:00
4:35 AM,31.8,25.2,76,30.03,10.0,Calm,Calm,-,N/A,,Scattered Clouds,0,2013-03-30 08:35:00
4:55 AM,32.2,24.6,74,30.03,10.0,Calm,Calm,-,N/A,,Clear,0,2013-03-30 08:55:00
5:15 AM,31.8,24.4,74,30.03,10.0,Calm,Calm,-,N/A,,Clear,0,2013-03-30 09:15:00
5:35 AM,28.6,23.7,82,30.04,10.0,Calm,Calm,-,N/A,,Clear,0,2013-03-30 09:35:00
5:55 AM,31.3,25.2,78,30.04,10.0,Calm,Calm,-,N/A,,Clear,0,2013-03-30 09:55:00
6:15 AM,27.3,23.5,86,30.04,10.0,Calm,Calm,-,N/A,,Clear,0,2013-03-30 10:15:00
6:35 AM,28.4,24.4,85,30.05,10.0,Calm,Calm,-,N/A,,Clear,0,2013-03-30 10:35:00
6:55 AM,26.2,22.8,87,30.05,10.0,Calm,Calm,-,N/A,,Clear,0,2013-03-30 10:55:00
7:15 AM,29.3,25.5,86,30.05,10.0,Calm,Calm,-,N/A,,Clear,0,2013-03-30 11:15:00
7:35 AM,28.9,25.2,86,30.06,10.0,Calm,Calm,-,N/A,,Clear,0,2013-03-30 11:35:00
7:55 AM,30.7,26.4,84,30.06,10.0,Calm,Calm,-,N/A,,Clear,0,2013-03-30 11:55:00
8:15 AM,32.0,27.5,83,30.07,10.0,Calm,Calm,-,N/A,,Clear,0,2013-03-30 12:15:00
8:35 AM,32.9,27.5,81,30.07,10.0,Calm,Calm,-,N/A,,Clear,0,2013-03-30 12:35:00
8:55 AM,34.5,27.0,74,30.08,10.0,Calm,Calm,-,N/A,,Clear,0,2013-03-30 12:55:00
9:15 AM,35.4,27.5,73,30.08,10.0,North,3.5,-,N/A,,Clear,360,2013-03-30 13:15:00
9:35 AM,36.7,28.2,71,30.08,10.0,Calm,Calm,-,N/A,,Clear,0,2013-03-30 13:35:00
9:55 AM,37.9,26.6,64,30.08,10.0,NW,8.1,-,N/A,,Clear,320,2013-03-30 13:55:00
10:15 AM,37.9,22.5,54,30.08,10.0,NW,6.9,-,N/A,,Clear,310,2013-03-30 14:15:00
10:35 AM,38.7,21.4,50,30.08,10.0,NW,5.8,-,N/A,,Clear,310,2013-03-30 14:35:00
10:55 AM,39.7,21.2,48,30.08,10.0,NNW,10.4,-,N/A,,Clear,340,2013-03-30 14:55:00
11:15 AM,40.3,17.6,40,30.08,10.0,NW,8.1,-,N/A,,Clear,310,2013-03-30 15:15:00
11:35 AM,40.3,16.3,38,30.08,10.0,NW,4.6,16.1,N/A,,Clear,310,2013-03-30 15:35:00
11:55 AM,40.5,15.8,37,30.08,10.0,WNW,10.4,-,N/A,,Clear,290,2013-03-30 15:55:00
12:15 PM,40.6,14.7,35,30.07,10.0,NW,9.2,-,N/A,,Clear,310,2013-03-30 16:15:00
12:35 PM,41.0,16.9,38,30.07,10.0,NW,6.9,18.4,N/A,,Clear,310,2013-03-30 16:35:00
12:55 PM,41.9,18.7,39,30.06,10.0,NNW,12.7,-,N/A,,Clear,340,2013-03-30 16:55:00
1:15 PM,42.1,14.2,32,30.06,10.0,NW,8.1,-,N/A,,Clear,320,2013-03-30 17:15:00
1:35 PM,41.9,13.1,31,30.05,10.0,WNW,8.1,16.1,N/A,,Clear,290,2013-03-30 17:35:00
1:55 PM,42.4,16.0,34,30.05,10.0,NNW,12.7,17.3,N/A,,Clear,330,2013-03-30 17:55:00
2:15 PM,42.4,14.5,32,30.05,10.0,West,10.4,-,N/A,,Clear,270,2013-03-30 18:15:00
2:35 PM,42.8,16.2,34,30.05,10.0,NNW,12.7,-,N/A,,Clear,340,2013-03-30 18:35:00
2:55 PM,43.2,12.7,29,30.05,10.0,NW,11.5,-,N/A,,Clear,310,2013-03-30 18:55:00
3:15 PM,43.3,13.3,30,30.05,10.0,WNW,8.1,-,N/A,,Clear,300,2013-03-30 19:15:00
3:35 PM,43.7,14.5,31,30.04,10.0,NW,9.2,-,N/A,,Clear,310,2013-03-30 19:35:00
3:55 PM,43.7,13.6,30,30.04,10.0,WSW,8.1,-,N/A,,Clear,250,2013-03-30 19:55:00
4:15 PM,43.0,12.0,28,30.04,10.0,NW,10.4,16.1,N/A,,Clear,310,2013-03-30 20:15:00
4:35 PM,43.2,14.4,31,30.04,10.0,NNW,9.2,-,N/A,,Clear,340,2013-03-30 20:35:00
4:55 PM,43.2,17.1,35,30.04,10.0,West,3.5,9.2,N/A,,Clear,260,2013-03-30 20:55:00
5:15 PM,43.0,13.8,31,30.04,10.0,NW,9.2,-,N/A,,Clear,320,2013-03-30 21:15:00
5:35 PM,42.8,12.7,30,30.04,10.0,WNW,9.2,-,N/A,,Clear,290,2013-03-30 21:35:00
5:55 PM,42.4,13.5,31,30.04,10.0,NW,6.9,-,N/A,,Clear,320,2013-03-30 21:55:00
6:15 PM,41.9,12.2,30,30.04,10.0,WNW,8.1,-,N/A,,Clear,300,2013-03-30 22:15:00
6:35 PM,41.2,12.7,31,30.05,10.0,NW,6.9,-,N/A,,Clear,310,2013-03-30 22:35:00
6:55 PM,40.5,12.6,32,30.05,10.0,NW,3.5,-,N/A,,Clear,310,2013-03-30 22:55:00
7:15 PM,40.1,11.7,31,30.06,10.0,Calm,Calm,-,N/A,,Clear,0,2013-03-30 23:15:00
7:35 PM,39.9,10.6,30,30.06,10.0,Calm,Calm,-,N/A,,Clear,0,2013-03-30 23:35:00
7:55 PM,39.2,10.8,31,30.06,10.0,Calm,Calm,-,N/A,,Clear,0,2013-03-30 23:55:00
8:15 PM,38.3,10.9,32,30.07,10.0,Calm,Calm,-,N/A,,Clear,0,2013-03-31 00:15:00
8:35 PM,38.1,10.6,32,30.07,10.0,Calm,Calm,-,N/A,,Clear,0,2013-03-31 00:35:00
8:55 PM,36.0,12.6,38,30.07,10.0,Calm,Calm,-,N/A,,Clear,0,2013-03-31 00:55:00
9:15 PM,33.4,14.0,45,30.07,10.0,Calm,Calm,-,N/A,,Clear,0,2013-03-31 01:15:00
9:35 PM,32.2,15.1,49,30.08,10.0,Calm,Calm,-,N/A,,Clear,0,2013-03-31 01:35:00
9:55 PM,32.2,15.1,49,30.08,10.0,Calm,Calm,-,N/A,,Clear,0,2013-03-31 01:55:00
10:15 PM,31.8,15.3,50,30.08,10.0,SW,3.5,-,N/A,,Clear,230,2013-03-31 02:15:00
10:35 PM,31.3,15.8,53,30.08,10.0,Calm,Calm,-,N/A,,Clear,0,2013-03-31 02:35:00
10:55 PM,27.5,17.4,66,30.08,10.0,Calm,Calm,-,N/A,,Clear,0,2013-03-31 02:55:00
11:35 PM,28.8,17.6,63,30.08,10.0,SW,3.5,-,N/A,,Clear,220,2013-03-31 03:35:00
11:55 PM,28.8,17.8,64,30.08,10.0,Calm,Calm,-,N/A,,Clear,0,2013-03-31 03:55:00